Theta_e
317 318 319 322 324 331 332 333 332 338 338 331 336 336 336 336 337 338 340 343 349 347 345 341 340 338 337 334 334 332 329 328 328 326 327 328 331 331 332 333 332 331 333
314 318 319 319 321 326 327 330 330 332 333 333 331 331 331 332 332 333 338 343 346 347 344 341 339 339 337 335 335 333 328 328 327 323 323 318 322 327 331 331 331 330 332
310 312 314 316 323 326 327 328 329 331 333 332 334 334 332 332 334 337 338 343 346 346 346 342 339 339 337 335 334 333 328 324 324 329 323 318 313 316 324 327 328 329 328
309 311 313 314 324 326 328 328 330 331 332 332 331 332 332 330 329 336 341 342 345 345 344 343 340 340 339 335 335 335 330 330 325 328 329 325 322 315 313 322 324 327 328
307 311 312 314 319 321 325 330 331 331 331 334 334 334 331 331 332 336 339 341 341 343 344 341 340 341 340 337 335 334 332 330 328 326 325 323 322 321 316 312 318 323 325
306 310 313 312 315 316 317 320 328 330 331 332 335 333 332 333 334 337 339 339 339 340 341 341 340 342 341 338 336 335 333 331 329 327 325 321 319 317 317 314 314 316 320
304 309 308 311 312 313 314 316 319 322 331 332 334 336 332 333 333 337 340 339 337 337 338 341 339 342 341 338 338 335 332 331 329 327 325 324 322 321 320 318 315 316 319
305 306 309 309 311 311 315 316 317 323 326 331 335 338 335 340 336 343 341 340 338 338 340 341 342 342 340 337 337 332 332 331 329 327 325 323 323 324 322 319 316 313 314
305 309 308 310 313 314 316 315 313 323 329 335 338 339 337 338 341 342 341 340 338 340 340 342 341 340 337 336 334 332 330 329 328 327 326 324 323 325 324 324 321 316 310
307 308 308 310 313 320 322 326 321 322 332 333 335 339 341 342 346 343 340 338 339 339 339 341 339 338 336 335 332 330 329 329 327 326 325 324 324 325 325 325 323 321 315
307 307 307 315 322 324 326 326 322 323 326 334 339 341 343 344 346 342 342 340 341 339 341 340 336 335 333 333 330 328 328 327 325 325 325 325 326 325 324 325 323 321 318
305 305 304 322 323 324 325 325 323 333 338 341 340 342 342 344 342 341 342 343 341 341 339 336 335 335 334 330 329 328 329 326 324 325 324 325 328 323 324 324 323 322 320
306 305 305 323 324 324 325 326 332 338 341 342 341 340 340 340 337 335 336 340 340 336 336 334 332 332 333 331 332 327 328 327 326 326 324 323 323 323 324 325 325 322 323
306 305 318 323 323 331 330 327 335 341 340 339 337 337 337 338 337 336 335 332 332 331 333 334 335 334 332 330 328 329 328 328 326 325 324 321 323 322 323 325 325 323 322
303 304 316 322 325 327 329 335 337 340 338 338 337 337 338 337 335 332 332 330 330 329 329 329 328 330 331 330 330 330 326 325 322 322 322 321 323 321 321 325 324 323 318
305 305 316 320 325 327 330 334 334 335 337 337 336 336 336 334 333 329 328 329 328 327 327 327 325 323 322 306 313 323 326 325 322 320 319 322 322 320 313 317 318 322 320
309 311 317 321 325 325 332 330 332 334 335 336 336 334 333 331 329 329 328 326 327 328 327 328 323 317 314 304 308 314 326 324 322 320 319 323 326 321 321 312 314 315 314
309 314 316 320 323 329 328 330 332 333 334 334 333 331 330 329 328 326 326 329 329 328 327 328 324 317 312 304 309 311 325 323 322 321 321 323 323 319 322 321 321 320 319
308 315 318 321 323 324 329 330 331 332 331 329 328 328 330 328 327 325 327 328 328 324 324 327 321 316 314 304 307 313 325 323 321 321 322 322 322 306 305 323 319 316 315
308 311 318 322 322 326 329 327 328 327 325 326 327 330 329 328 328 326 327 325 325 324 327 327 324 314 314 301 304 313 325 321 320 319 319 302 313 301 304 321 318 316 316
308 309 315 321 323 328 329 327 326 324 325 327 328 331 330 327 327 327 325 325 325 326 325 324 322 320 314 310 302 308 326 322 321 320 317 312 300 300 302 309 319 316 317
306 308 310 321 324 329 329 328 324 324 326 330 330 329 328 331 329 327 325 325 325 324 321 322 323 323 316 306 301 300 312 314 320 319 317 307 298 298 302 310 299 302 311
307 308 310 315 324 326 329 328 324 325 329 328 327 327 327 329 328 326 325 324 325 323 319 321 323 320 315 311 299 298 303 309 317 318 308 297 297 298 302 299 301 307 319
308 309 311 323 322 326 331 331 328 330 329 327 326 327 326 327 327 327 326 325 324 323 320 319 321 322 319 314 309 310 309 303 305 303 307 304 304 305 308 309 314 320 319
309 311 317 322 323 326 330 330 330 330 327 327 327 326 325 323 314 308 309 321 315 317 323 322 321 321 320 318 313 313 315 314 308 311 315 315 315 315 316 317 319 318 318
309 312 320 322 324 328 329 327 330 330 328 326 325 326 324 321 320 316 312 295 295 297 303 307 317 314 307 301 301 299 298 299 299 314 314 313 315 316 316 317 317 318 314
Wind_Speed
20 18 17 9 8 8 12 12 11 9 9 4 4 2 5 3 4 5 8 8 10 13 13 7 7 6 6 6 6 4 5 2 3 4 2 2 4 5 5 3 3 3 4
10 9 9 10 9 11 11 10 12 11 7 5 4 4 4 4 4 5 7 7 9 11 11 8 6 6 4 6 6 5 2 2 3 4 3 1 5 3 4 3 3 4 3
18 13 13 10 10 14 12 12 12 12 8 9 3 2 1 2 2 3 4 5 10 12 12 9 7 6 5 5 4 5 6 4 2 3 5 2 4 1 3 3 3 4 2
11 16 16 11 9 11 11 12 12 11 9 9 5 8 8 7 4 4 4 5 9 9 9 10 7 6 5 5 5 5 4 5 4 1 2 3 4 2 2 3 1 2 2
10 15 16 11 10 9 8 8 9 9 9 12 12 9 6 5 4 3 7 6 6 8 8 8 7 6 4 5 7 6 5 4 4 3 2 2 1 2 3 2 3 3 1
11 11 18 10 10 10 10 10 12 14 13 13 12 12 10 7 5 4 6 4 4 5 7 8 6 5 5 6 6 6 7 5 5 3 3 4 4 3 3 2 2 2 2
22 19 12 9 9 10 10 10 11 11 13 13 13 14 11 9 9 7 7 8 5 3 6 6 6 4 5 6 6 6 6 6 4 5 3 3 3 3 3 3 2 2 1
22 14 13 12 12 10 10 10 10 10 11 13 13 11 11 6 6 7 9 8 7 5 7 7 6 6 7 6 6 5 4 6 5 5 4 3 3 3 3 4 4 2 0
21 14 6 7 9 8 8 10 10 10 12 13 11 11 10 8 7 8 10 8 6 6 7 8 6 7 7 8 7 5 5 5 4 4 5 3 2 3 3 3 3 5 3
15 4 1 2 1 4 4 4 9 11 11 12 11 8 9 8 10 12 10 9 9 8 7 8 7 6 8 7 7 5 5 6 4 4 5 3 2 3 3 3 3 3 4
20 3 4 0 3 2 1 2 5 8 8 8 7 8 8 7 12 12 11 11 10 8 8 8 8 9 8 7 6 5 6 6 6 5 6 5 4 3 2 3 2 3 3
15 15 6 2 2 4 5 4 7 8 10 10 8 8 8 7 9 10 11 11 11 9 9 10 10 8 7 7 6 6 7 7 7 6 6 5 3 2 3 3 4 4 4
18 23 8 3 5 7 6 6 7 11 11 11 8 8 8 10 12 10 9 13 13 10 11 10 8 7 7 7 6 6 6 7 6 6 6 6 5 3 1 2 3 3 4
24 23 13 8 5 5 6 9 10 13 10 10 11 10 9 12 12 11 8 8 7 9 10 9 8 7 8 8 7 6 7 6 6 6 5 5 5 3 2 4 3 4 7
26 23 6 4 6 5 9 15 13 15 13 14 13 12 11 12 11 7 7 7 7 7 7 7 6 6 7 5 6 5 7 7 6 5 5 4 3 2 3 2 4 8 7
22 11 6 8 9 9 2 11 12 15 16 16 14 11 12 10 9 8 8 8 7 7 8 8 8 8 5 5 9 8 6 7 7 6 4 3 4 4 1 7 5 9 13
24 3 4 4 10 11 6 8 15 14 16 15 14 12 10 10 8 8 7 7 7 8 8 9 9 8 6 6 9 6 5 7 6 6 4 3 3 4 4 2 5 10 9
22 6 4 7 8 10 8 9 16 15 16 15 14 12 12 10 8 8 7 6 7 8 6 8 8 8 4 5 7 4 6 6 6 5 5 4 0 2 6 6 9 9 8
20 9 2 3 7 5 5 8 16 16 16 14 13 12 12 11 8 7 6 6 7 6 6 8 8 8 5 6 5 2 5 6 6 5 4 3 4 5 7 9 10 8 5
18 16 8 4 4 1 10 7 13 15 15 14 13 15 12 11 9 7 7 4 6 6 6 7 7 8 7 4 2 4 4 6 5 4 4 7 4 5 10 11 11 12 9
21 22 10 6 7 8 9 4 14 14 14 14 15 14 12 10 9 7 6 6 6 7 8 8 6 7 7 2 3 5 5 6 5 3 2 2 3 4 11 11 10 12 11
23 22 14 11 7 12 12 7 11 10 12 18 17 14 11 9 9 11 5 7 8 8 6 7 6 6 5 5 6 4 7 8 6 5 3 3 4 10 11 9 15 15 12
20 15 13 14 8 9 16 3 7 10 19 18 15 13 10 10 9 9 7 6 8 7 5 6 6 5 4 4 6 9 9 8 5 4 6 7 9 12 11 16 16 11 8
16 12 13 5 10 6 10 5 11 20 19 17 14 12 11 10 8 6 6 6 7 6 6 5 6 6 5 4 3 4 6 9 8 9 5 7 9 10 10 8 6 6 7
15 12 9 2 12 10 12 4 19 18 17 15 12 11 7 9 8 7 4 4 2 1 7 7 7 8 7 6 8 7 5 5 6 8 4 5 5 7 5 3 6 6 7
14 12 5 4 13 11 7 11 15 17 16 13 9 10 8 7 7 8 6 14 8 3 3 9 10 2 7 13 13 13 14 14 11 4 5 5 6 7 5 5 6 6 7
Wind_Direction
235 242 250 241 240 180 157 161 150 157 149 148 154 184 214 201 212 223 219 205 187 189 187 170 178 183 175 190 177 168 184 203 155 99 30 314 243 237 237 248 247 265 232
232 226 239 253 209 193 178 169 167 168 171 151 164 165 179 211 206 218 222 197 177 173 175 170 171 179 167 180 179 156 131 153 152 142 112 347 323 274 241 227 227 240 234
226 227 240 240 262 201 186 176 182 179 173 178 142 159 308 311 262 230 218 190 166 159 163 163 167 177 168 175 176 158 156 160 208 168 143 146 224 331 332 246 226 230 242
253 232 233 231 204 220 183 184 184 181 178 173 171 185 208 212 223 186 195 162 159 158 153 162 159 167 171 166 164 161 155 128 171 127 179 148 154 170 324 335 308 212 191
222 234 230 204 186 180 176 185 181 188 188 189 193 193 193 202 185 198 173 151 149 149 150 156 152 158 164 157 163 158 160 152 138 149 154 205 201 138 136 245 298 348 342
246 220 230 211 194 187 189 189 186 201 202 198 193 187 186 184 182 180 156 149 141 142 151 147 152 168 162 170 173 168 154 150 143 165 169 161 164 191 154 169 220 203 287
283 255 221 215 204 200 202 188 190 203 202 197 195 197 176 181 189 180 158 147 137 140 150 137 164 169 158 158 150 144 146 153 162 182 189 162 187 153 152 136 178 136 278
277 269 234 216 220 218 204 207 195 202 197 201 198 179 171 174 183 165 162 154 158 152 161 149 166 161 159 131 127 129 141 156 173 179 173 159 177 154 151 158 144 87 333
271 258 158 162 156 167 199 207 205 200 189 187 172 176 177 167 171 154 154 153 143 151 151 158 154 155 140 136 137 143 159 163 174 186 163 149 167 146 147 160 151 150 160
273 131 185 230 183 170 187 187 211 187 175 169 172 162 162 169 166 153 154 158 155 159 152 154 149 144 136 138 141 158 173 171 185 173 154 163 181 170 166 166 168 156 144
311 342 342 262 103 87 97 348 198 160 148 145 143 145 161 170 163 155 159 159 150 147 146 142 131 134 137 148 157 165 176 167 166 150 170 186 166 176 179 198 167 169 134
299 316 334 160 332 272 268 254 193 148 147 145 145 159 164 143 139 138 148 140 144 144 135 132 135 142 152 161 165 187 175 173 164 171 157 174 164 190 204 190 188 172 148
331 314 315 228 256 246 233 220 172 145 143 151 131 125 127 120 116 113 115 135 139 132 139 141 153 161 161 164 178 169 159 153 173 168 166 163 147 166 199 211 145 171 115
302 316 283 314 276 273 263 185 153 145 134 128 123 128 123 113 116 119 111 115 137 131 150 161 170 169 167 178 162 162 161 160 172 168 156 153 158 160 231 191 183 163 120
286 286 298 328 286 254 247 171 143 134 129 127 125 127 117 117 122 120 126 140 121 123 129 113 111 124 137 139 157 145 137 133 126 127 135 150 178 158 134 152 181 135 126
282 277 352 345 293 303 218 142 133 126 126 124 124 126 124 120 118 120 115 114 129 125 119 109 120 98 94 92 108 139 139 139 135 148 169 183 201 203 123 162 156 164 145
331 27 359 340 359 324 36 136 123 129 124 125 130 128 120 117 115 115 117 132 124 127 126 122 111 107 109 92 90 87 141 141 155 157 164 190 203 205 172 160 154 132 118
331 305 325 342 2 8 167 183 129 137 128 129 129 127 123 117 113 117 123 115 118 122 120 112 112 108 94 104 116 106 131 129 135 143 168 193 83 182 156 125 111 116 122
317 297 310 319 344 288 268 147 135 134 127 130 137 127 125 126 130 134 130 117 116 112 112 121 118 111 117 139 128 149 134 121 125 134 135 142 87 155 123 128 116 99 77
310 306 289 299 348 252 263 144 128 127 138 150 141 140 138 139 145 140 125 132 125 125 111 106 105 123 126 89 54 186 135 125 122 118 105 57 113 171 128 133 130 124 127
305 310 312 319 332 30 253 165 142 147 151 153 136 138 135 149 139 120 122 125 115 108 115 119 129 122 118 110 37 129 137 138 131 131 122 73 110 127 133 135 133 135 132
303 306 333 312 45 319 244 101 149 155 124 116 128 133 135 133 127 128 123 121 117 122 121 119 108 100 105 94 48 71 158 130 135 143 125 110 111 120 130 116 125 123 123
292 311 298 294 118 255 259 149 177 119 121 118 123 128 124 124 131 127 128 125 127 132 139 131 126 126 112 89 60 53 86 127 110 120 121 114 101 105 101 124 127 127 125
297 296 297 314 304 253 232 218 123 126 124 121 126 119 121 129 124 124 131 138 146 150 150 140 141 143 137 134 126 108 88 80 87 109 111 97 86 83 114 120 119 121 130
293 287 268 1 289 280 238 153 132 128 121 125 129 121 117 102 88 67 35 110 67 179 162 165 156 155 162 178 160 148 135 127 126 126 120 107 109 122 125 102 116 126 129
285 278 277 42 280 225 245 129 130 124 125 123 130 125 122 119 123 120 94 49 44 32 117 150 152 92 146 146 141 129 124 130 148 120 129 125 132 142 138 131 128 137 140